Weather History for Pella, IA

Change the Weather History Date:

Monday, January 20, 2014

  Actual Average (KOXV) Record (KOXV)
Temperature  
Mean Temperature 26 °F -  
Max Temperature 41 °F 31 °F 51 °F (1997)
Min Temperature 10 °F 14 °F -21 °F (1985)
Degree Days  
Heating Degree Days 39    
Moisture  
Dew Point 25 °F    
Average Humidity 82    
Maximum Humidity 94    
Minimum Humidity 66    
Precipitation  
Precipitation 0.03 in - - ()
Sea Level Pressure  
Sea Level Pressure 29.96 in    
Wind  
Wind Speed 8 mph (NW)    
Max Wind Speed 24 mph    
Max Gust Speed 33 mph    
Visibility 8 miles    
Events Rain , Snow    
Averages and records for this station are not official NWS values.
T = Trace of Precipitation, MM = Missing Value Source: NWS Daily Summary

Daily Weather History Graph

Daily Weather History Graph

Search for Another Location

Airport:

Trip Planner

Search our weather history database for the weather conditions in past years. The results will help you decide how hot, cold, wet, or windy it might be!

Date:

Astronomy

Jan. 20, 2014 Rise Set
Actual Time 7:32 AM CST 5:13 PM CST
Civil Twilight 7:02 AM CST 5:43 PM CST
Nautical Twilight 6:28 AM CST 6:17 PM CST
Astronomical Twilight 5:56 AM CST 6:50 PM CST
Moon 9:52 PM CST (1/20) 9:29 AM CST (1/20)
Length of Visible Light 10h 40m
Length of Day
9h 40m
Waning Gibbous, 82% of the Moon is Illuminated
Jan 20
Waning Gibbous
Jan 23
Last Quarter
Jan 30
New
Feb 6
First Quarter
Feb 14
Full

Hourly Weather History & Observations

Time (CST) Temp. Windchill Dew Point Humidity Pressure Visibility Wind Dir Wind Speed Gust Speed Precip Events Conditions
12:15 AM 35.6 °F 29.9 °F 28.0 °F 74% 29.80 in 10.0 mi NW 6.9 mph - N/A   Clear
12:35 AM 34.0 °F 27.2 °F 27.9 °F 78% 29.79 in 10.0 mi NW 8.1 mph - N/A   Clear
12:55 AM 33.3 °F 25.1 °F 27.9 °F 81% 29.79 in 10.0 mi NNW 10.4 mph - N/A   Clear
1:15 AM 32.9 °F 26.7 °F 27.9 °F 82% 29.80 in 10.0 mi NW 6.9 mph - N/A   Clear
1:35 AM 32.0 °F 26.4 °F 27.5 °F 83% 29.81 in 10.0 mi NW 5.8 mph - N/A   Clear
1:55 AM 32.0 °F 25.6 °F 27.3 °F 83% 29.84 in 10.0 mi WNW 6.9 mph - N/A   Clear
2:15 AM 31.6 °F 26.0 °F 27.3 °F 84% 29.83 in 10.0 mi WNW 5.8 mph - N/A   Clear
2:35 AM 31.8 °F 25.4 °F 27.3 °F 83% 29.84 in 10.0 mi WNW 6.9 mph - N/A   Clear
2:55 AM 32.0 °F 27.5 °F 27.3 °F 83% 29.85 in 10.0 mi NW 4.6 mph - N/A   Clear
3:15 AM 30.9 °F - 26.6 °F 84% 29.85 in 10.0 mi Calm Calm - N/A   Clear
3:35 AM 30.2 °F 24.3 °F 26.4 °F 86% 29.86 in 10.0 mi NW 5.8 mph - N/A   Clear
3:55 AM 30.4 °F 24.5 °F 26.4 °F 85% 29.86 in 10.0 mi NW 5.8 mph - N/A   Clear
4:15 AM 29.3 °F 23.2 °F 26.2 °F 88% 29.86 in 10.0 mi NW 5.8 mph - N/A   Clear
4:35 AM 29.1 °F 24.1 °F 25.7 °F 87% 29.86 in 10.0 mi NNW 4.6 mph - N/A   Clear
4:55 AM 28.4 °F 22.2 °F 25.3 °F 88% 29.87 in 10.0 mi NNW 5.8 mph - N/A   Clear
5:15 AM 27.3 °F 20.9 °F 24.4 °F 89% 29.87 in 10.0 mi NNW 5.8 mph - N/A   Clear
5:35 AM 26.8 °F - 24.4 °F 91% 29.87 in 10.0 mi Calm Calm - N/A   Clear
5:55 AM 28.8 °F 20.9 °F 25.9 °F 89% 29.88 in 10.0 mi North 8.1 mph - N/A   Clear
6:15 AM 28.4 °F 21.2 °F 25.7 °F 90% 29.88 in 10.0 mi NNW 6.9 mph - N/A   Clear
6:35 AM 27.5 °F 22.2 °F 24.8 °F 90% 29.88 in 10.0 mi WSW 4.6 mph - N/A   Clear
6:55 AM 27.0 °F 20.5 °F 24.6 °F 91% 29.89 in 10.0 mi WSW 5.8 mph - N/A   Clear
7:15 AM 26.4 °F 22.4 °F 24.4 °F 92% 29.90 in 10.0 mi WNW 3.5 mph - N/A   Clear
7:35 AM 27.3 °F 22.0 °F 25.3 °F 92% 29.91 in 10.0 mi WSW 4.6 mph - N/A   Clear
7:55 AM 28.0 °F 22.8 °F 25.7 °F 91% 29.92 in 10.0 mi WSW 4.6 mph - N/A   Clear
8:15 AM 30.7 °F 24.9 °F 27.3 °F 87% 29.92 in 10.0 mi West 5.8 mph - N/A   Clear
8:35 AM 30.9 °F 25.2 °F 26.6 °F 84% 29.93 in 10.0 mi West 5.8 mph - N/A   Clear
8:55 AM 31.8 °F 27.3 °F 27.3 °F 83% 29.93 in 10.0 mi WSW 4.6 mph - N/A   Clear
9:15 AM 32.9 °F 28.5 °F 27.7 °F 81% 29.93 in 10.0 mi West 4.6 mph - N/A   Clear
9:35 AM 32.2 °F 27.7 °F 27.3 °F 82% 29.94 in 10.0 mi West 4.6 mph - N/A   Clear
9:55 AM 32.5 °F 29.3 °F 27.7 °F 82% 29.94 in 10.0 mi West 3.5 mph - N/A   Clear
10:15 AM - - - N/A% - - North - - N/A   Unknown
10:55 AM 38.1 °F - 31.1 °F 76% 29.97 in 10.0 mi Calm Calm - 0.03 in   Clear
11:15 AM 38.5 °F - 31.1 °F 75% 29.97 in 10.0 mi Calm Calm - N/A   Clear
11:35 AM 40.3 °F - 31.6 °F 71% 29.96 in 10.0 mi Calm Calm - N/A   Clear
11:55 AM 40.3 °F 33.9 °F 31.6 °F 71% 29.96 in 10.0 mi NW 10.4 mph - N/A   Clear
12:15 PM 40.1 °F 34.1 °F 31.3 °F 71% 29.95 in 10.0 mi NNW 9.2 mph - N/A   Clear
12:35 PM 40.1 °F 36.1 °F 31.1 °F 70% 29.94 in 10.0 mi NNW 5.8 mph - N/A   Mostly Cloudy
12:55 PM 41.0 °F 35.8 °F 31.1 °F 68% 29.94 in 10.0 mi NW 8.1 mph - N/A   Overcast
1:15 PM 40.5 °F 35.8 °F 30.9 °F 69% 29.95 in 10.0 mi NW 6.9 mph - N/A   Overcast
1:35 PM 40.1 °F 36.9 °F 31.1 °F 70% 29.94 in 10.0 mi WNW 4.6 mph - N/A   Mostly Cloudy
1:55 PM 41.0 °F 37.1 °F 30.9 °F 67% 29.93 in 10.0 mi West 5.8 mph - N/A   Overcast
2:15 PM 41.0 °F 36.4 °F 30.4 °F 66% 29.93 in 10.0 mi West 6.9 mph - N/A   Overcast
2:35 PM 41.0 °F 36.4 °F 30.6 °F 66% 29.92 in 10.0 mi WSW 6.9 mph - N/A   Overcast
2:55 PM 40.8 °F 37.8 °F 30.4 °F 66% 29.92 in 10.0 mi WSW 4.6 mph - N/A   Mostly Cloudy
3:15 PM 40.1 °F - 30.0 °F 67% 29.91 in 10.0 mi Calm Calm - N/A   Mostly Cloudy
3:35 PM 39.2 °F 37.0 °F 29.8 °F 69% 29.92 in 10.0 mi SW 3.5 mph - N/A Rain Rain
3:55 PM 37.8 °F 34.2 °F 31.1 °F 77% 29.94 in 7.0 mi WNW 4.6 mph - N/A Rain Rain
4:15 PM 38.1 °F 30.7 °F 32.0 °F 79% 29.94 in 10.0 mi West 11.5 mph 19.6 mph N/A   Drizzle
4:35 PM 38.8 °F 30.8 °F 31.8 °F 76% 29.94 in 10.0 mi WNW 13.8 mph 24.2 mph N/A Rain Rain
4:55 PM 37.6 °F 30.5 °F 31.6 °F 79% 29.94 in 10.0 mi NW 10.4 mph 24.2 mph N/A   Scattered Clouds
5:15 PM 37.2 °F 30.0 °F 31.6 °F 80% 29.95 in 10.0 mi NW 10.4 mph 18.4 mph N/A   Scattered Clouds
5:35 PM 36.3 °F 26.8 °F 32.0 °F 84% 29.96 in 10.0 mi NW 16.1 mph 24.2 mph N/A   Drizzle
5:55 PM 35.1 °F 25.9 °F 32.0 °F 89% 29.96 in 10.0 mi NW 13.8 mph 25.3 mph N/A   Light Drizzle
6:15 PM 34.3 °F 25.0 °F 32.2 °F 92% 29.98 in 10.0 mi NW 13.8 mph 21.9 mph N/A Rain Light Rain
6:35 PM 33.4 °F 24.3 °F 31.8 °F 94% 29.99 in 5.0 mi North 12.7 mph - N/A Snow Light Snow
6:55 PM 32.0 °F 23.6 °F 30.2 °F 93% 30.00 in 5.0 mi North 10.4 mph - N/A Snow Light Snow
7:15 PM 30.9 °F 18.7 °F 28.0 °F 89% 30.02 in 7.0 mi North 19.6 mph 27.6 mph N/A Snow Light Snow
7:35 PM 26.4 °F 13.2 °F 23.2 °F 88% 30.06 in 2.5 mi North 18.4 mph 29.9 mph N/A Snow Light Snow
7:55 PM 24.4 °F 11.0 °F 21.2 °F 87% 30.09 in 1.8 mi North 17.3 mph 27.6 mph N/A Snow Light Snow
8:15 PM 22.8 °F 7.0 °F 19.6 °F 87% 30.11 in 2.5 mi North 23.0 mph 28.8 mph N/A Snow Light Snow
8:35 PM 20.8 °F 4.0 °F 17.4 °F 87% 30.13 in 2.0 mi North 24.2 mph 31.1 mph N/A Snow Light Snow
8:55 PM 19.4 °F 4.1 °F 15.4 °F 85% 30.15 in 2.5 mi North 18.4 mph 32.2 mph N/A Snow Light Snow
9:15 PM 17.8 °F 1.5 °F 14.5 °F 87% 30.17 in 1.8 mi North 19.6 mph 29.9 mph N/A Snow Light Snow
9:35 PM 15.8 °F -2.3 °F 11.3 °F 82% 30.19 in 2.5 mi North 23.0 mph 31.1 mph N/A Snow Light Snow
9:55 PM 15.1 °F -2.9 °F 11.7 °F 86% 30.21 in 1.8 mi NNW 21.9 mph 29.9 mph N/A Snow Light Snow
10:15 PM 14.4 °F -2.5 °F 10.4 °F 84% 30.23 in 1.8 mi North 18.4 mph 31.1 mph N/A Snow Light Snow
10:35 PM 13.8 °F -4.1 °F 10.4 °F 86% 30.25 in 1.5 mi North 20.7 mph 27.6 mph N/A Snow Light Snow
10:55 PM 12.9 °F -5.7 °F 8.4 °F 82% 30.25 in 2.0 mi North 21.9 mph 29.9 mph N/A Snow Light Snow
11:15 PM 11.8 °F -7.6 °F 6.8 °F 80% 30.27 in 3.0 mi North 23.0 mph 33.4 mph N/A Snow Light Snow
11:35 PM 11.7 °F -7.8 °F 6.6 °F 80% 30.28 in 4.0 mi North 23.0 mph 29.9 mph N/A Snow Light Snow
11:55 PM 10.8 °F -9.4 °F 5.0 °F 78% 30.29 in 7.0 mi North 24.2 mph 28.8 mph N/A   Mostly Cloudy